Wind_Speed
11 9 6 7 6 5 4 4 7 9 13 15 16 17 17 17 14 14 16 17 15 12 12 13 13 15 18 21 23 24 24 25 21 28 30 30 29 29 29 28 29 29 30
11 7 8 9 6 5 5 6 8 12 14 15 15 15 15 15 14 12 11 10 11 11 12 13 17 19 21 23 24 25 26 28 27 27 29 28 28 27 29 29 28 28 27
7 8 11 9 7 7 8 8 10 13 14 15 14 14 14 13 11 10 9 8 10 12 15 16 19 19 20 21 22 24 26 26 25 22 25 25 26 26 27 27 26 25 25
9 12 8 7 8 8 8 9 12 14 14 14 13 12 12 13 11 9 8 9 13 15 16 16 16 17 17 17 22 21 22 24 23 22 23 24 25 25 25 25 23 23 24
11 9 6 7 7 8 8 11 13 14 14 14 13 12 12 12 8 5 8 12 15 17 15 15 15 15 17 15 14 21 21 22 21 22 23 23 22 23 23 25 25 25 23
9 7 7 6 8 9 10 12 13 14 15 16 13 13 12 13 9 9 9 11 16 16 14 15 15 16 13 17 15 13 18 23 25 25 23 22 27 25 22 23 24 22 12
8 7 6 7 9 10 12 13 13 14 15 16 11 12 14 10 11 10 10 12 15 13 13 15 16 15 16 16 17 20 21 22 23 24 25 24 23 24 26 26 25 23 23
6 6 7 8 11 12 13 13 14 14 15 16 10 9 13 12 12 12 12 13 13 13 13 14 15 15 14 13 18 20 21 21 20 20 20 24 26 27 25 25 26 26 24
5 6 7 10 12 13 14 15 14 15 15 14 11 11 13 11 11 12 12 12 12 13 13 14 13 15 14 19 17 19 21 21 19 20 22 23 25 27 27 26 24 19 17
5 7 9 11 13 14 15 15 15 15 16 13 11 11 12 9 10 12 12 10 11 12 13 13 12 8 13 15 16 18 20 20 23 24 22 21 20 19 18 16 20 20 18
7 8 10 12 13 13 14 14 15 17 15 12 10 10 11 10 12 12 11 9 10 12 13 13 12 14 18 17 15 15 16 21 20 20 19 18 18 17 17 18 19 20 20
7 10 12 13 13 13 14 14 16 16 16 12 10 11 12 13 14 14 15 12 11 11 13 13 13 18 18 16 14 13 19 16 16 17 17 16 16 17 19 21 22 22 21
9 12 13 14 14 14 16 16 15 17 15 11 10 11 12 14 11 12 15 13 10 10 12 13 16 15 14 13 10 15 13 13 15 15 15 16 16 18 19 20 23 23 23
11 13 14 14 14 15 17 16 14 14 14 11 11 12 14 13 12 11 11 11 10 11 12 9 15 14 13 13 12 11 11 11 13 15 15 16 16 16 17 18 21 22 20
12 13 13 13 14 16 16 17 14 13 14 14 13 13 14 13 13 12 8 9 10 9 12 12 12 10 12 11 11 11 11 11 12 12 14 15 16 16 16 18 17 19 16
11 11 11 12 15 15 17 17 17 18 17 20 21 21 20 16 17 17 17 16 15 12 11 13 13 10 10 11 11 11 10 10 11 12 13 13 15 16 16 15 15 15 16
11 11 11 12 13 14 15 17 17 18 18 18 20 21 21 22 19 18 17 17 15 13 12 14 13 11 10 11 11 10 10 9 10 11 12 12 13 14 16 15 14 14 14
14 14 14 14 15 14 16 18 19 20 18 16 14 19 21 21 19 19 19 17 16 18 17 16 14 12 11 11 10 10 9 10 10 10 11 11 12 12 14 14 14 14 14
16 17 16 17 17 18 20 21 19 22 22 20 16 16 18 20 21 20 19 19 19 18 15 16 16 13 12 11 10 8 8 9 9 9 10 10 10 11 11 12 13 14 15
21 21 21 21 20 17 17 18 20 21 20 20 17 15 15 14 14 16 21 24 22 21 18 17 16 15 12 11 10 9 9 9 8 8 8 8 9 10 11 11 11 13 13
24 23 20 19 19 20 20 20 20 20 20 19 19 17 18 16 16 17 16 18 23 22 19 18 18 16 14 12 12 11 10 9 8 7 8 7 7 9 9 10 10 10 11
25 23 20 20 21 20 20 23 23 20 18 20 20 18 19 20 20 20 19 20 21 20 20 19 19 17 16 15 14 12 11 10 8 8 7 6 7 7 7 8 9 10 10
23 22 22 20 18 20 22 22 23 19 18 20 20 21 19 20 21 22 22 24 24 23 23 23 23 21 19 19 17 15 13 11 9 8 8 7 6 6 6 7 7 8 9
23 22 21 19 20 20 21 22 22 21 22 19 18 19 20 21 23 25 27 27 27 28 26 26 25 24 23 22 20 18 14 12 10 9 9 7 6 5 5 6 6 6 7
26 25 21 18 17 18 21 21 20 19 19 19 19 18 18 18 20 21 24 25 27 28 27 26 27 24 25 24 21 20 16 16 14 10 9 7 7 6 5 5 5 6 5
26 22 18 13 12 15 15 16 16 17 17 17 17 18 18 19 20 21 22 22 22 23 26 25 24 25 24 22 24 21 19 20 17 14 11 8 8 7 6 5 5 5 4
Wind_Direction
168 169 183 220 202 218 259 278 292 300 309 310 310 310 310 310 318 311 301 297 301 303 310 302 300 293 282 290 297 297 294 293 295 300 304 307 308 306 303 300 298 294 291
165 183 205 213 227 249 264 279 296 305 308 308 308 307 312 311 305 307 309 320 307 304 299 295 301 306 307 303 302 302 304 302 301 303 305 303 302 302 301 300 295 293 293
179 200 206 221 248 266 273 280 296 305 305 305 302 305 308 307 300 300 292 286 297 304 306 312 309 307 305 305 308 307 304 302 302 305 298 301 299 300 299 298 296 293 289
197 214 228 242 264 268 271 282 297 300 299 301 302 305 305 291 290 278 298 312 308 307 310 307 304 304 307 315 310 308 307 309 308 302 299 301 300 300 296 293 297 300 296
201 225 254 260 258 261 270 283 294 295 296 296 299 298 289 292 282 310 317 313 310 308 305 303 305 309 308 304 302 308 308 306 303 299 297 296 298 303 302 302 296 298 298
208 236 259 262 256 261 274 287 291 293 293 293 291 288 288 284 253 270 301 310 311 306 306 309 309 308 308 305 298 300 298 296 294 295 298 299 300 301 308 309 304 300 295
223 243 259 248 252 266 280 285 291 295 296 292 282 276 284 271 247 265 296 311 308 306 307 310 312 312 315 317 313 310 304 299 294 292 286 290 306 307 309 307 306 302 297
237 252 248 248 263 276 280 282 287 295 292 291 272 265 275 267 246 267 296 309 301 301 308 308 308 315 322 332 320 311 309 308 305 306 304 304 303 302 298 294 299 294 290
248 253 261 265 274 280 285 286 285 291 294 294 289 276 269 253 247 268 294 302 299 305 306 305 308 306 309 319 320 313 311 310 308 309 306 302 296 294 289 285 287 294 293
275 270 272 278 283 290 291 288 285 290 290 295 292 278 267 258 274 275 287 292 298 301 305 307 309 308 312 323 315 311 308 311 318 313 310 310 306 305 304 278 279 283 281
261 269 278 283 290 292 286 284 287 291 294 289 287 274 280 263 270 265 278 279 288 300 302 305 304 319 316 317 310 305 304 310 310 308 315 313 316 322 323 320 313 305 299
283 285 288 293 289 287 282 283 288 289 287 281 268 256 262 267 259 255 267 270 274 288 291 299 305 308 315 313 312 299 314 313 313 316 315 321 327 326 321 317 311 307 289
284 284 290 291 283 282 280 290 300 294 287 285 268 264 269 265 260 244 250 261 273 275 287 288 305 309 312 316 312 310 318 321 323 321 321 323 324 321 321 324 328 329 337
286 289 290 286 284 283 284 288 289 283 280 274 267 267 277 280 278 263 234 240 253 264 283 291 306 303 308 312 306 318 316 317 320 320 324 321 324 329 329 333 332 337 335
288 290 291 288 283 285 289 290 290 276 268 268 263 261 262 262 270 256 250 262 264 274 288 297 295 302 310 313 315 315 316 319 322 327 327 328 331 333 333 335 337 337 342
284 285 287 293 289 291 292 293 288 282 268 270 266 263 265 266 264 268 274 273 267 267 277 283 285 290 296 302 306 310 313 318 325 323 329 331 333 335 333 335 342 343 341
273 282 289 291 291 291 286 287 290 286 273 262 262 260 260 264 261 261 264 264 257 248 254 269 276 282 286 290 296 302 308 317 318 323 325 330 334 334 332 339 343 346 342
272 277 272 281 284 287 286 287 290 293 283 265 269 264 255 257 258 260 256 257 253 237 247 263 266 269 274 279 288 296 304 308 313 322 322 328 329 333 335 340 341 347 340
275 277 280 280 280 280 279 268 273 282 283 270 268 272 260 248 254 259 250 245 255 246 247 251 256 260 265 268 276 281 286 292 298 304 313 321 326 329 333 338 336 339 329
281 279 277 274 269 270 270 275 280 280 277 265 256 255 255 254 247 237 237 239 242 246 248 251 257 260 257 257 263 263 269 268 277 291 304 309 319 324 327 332 338 336 340
280 281 276 273 269 271 272 268 266 276 280 269 261 254 251 248 254 258 251 247 238 237 239 241 247 247 247 244 248 253 257 266 273 280 289 300 311 309 324 325 332 336 337
281 280 275 272 275 277 277 282 269 256 270 276 267 260 250 240 244 249 253 254 255 250 240 238 239 241 239 235 238 238 243 250 255 261 270 282 292 303 316 317 327 335 339
274 271 273 276 274 278 278 278 281 270 269 272 271 267 257 247 244 244 245 249 254 253 246 240 238 240 239 236 228 233 236 242 241 242 251 259 274 291 308 312 321 331 340
269 264 265 270 273 278 283 282 283 274 268 270 274 274 270 264 258 256 256 255 253 250 251 242 233 235 239 237 230 229 229 229 226 238 235 239 255 271 288 301 304 323 324
289 254 256 267 277 288 290 286 282 281 285 283 276 274 277 277 275 274 274 268 261 252 244 242 235 238 237 233 225 227 221 221 216 216 226 231 241 255 265 281 294 302 320
292 277 270 269 293 306 315 323 326 324 320 313 304 287 280 281 284 284 284 282 280 267 249 237 235 238 231 230 226 221 217 223 226 226 219 223 232 242 248 257 272 284 299
Height
833 835 837 840 840 841 842 843 844 845 844 842 840 838 835 832 831 829 828 826 825 824 824 822 822 821 819 817 814 811 808 804 797 792 791 790 788 786 783 780 776 772 768
829 832 834 838 838 839 840 841 842 842 840 838 837 835 833 831 830 828 827 826 825 823 822 820 818 816 815 813 811 807 804 801 797 790 789 788 786 783 779 775 771 767 763
826 829 831 834 835 836 837 839 839 839 837 835 833 832 831 830 828 826 825 824 823 821 819 818 817 815 814 812 810 807 803 799 796 792 787 786 783 779 774 770 766 762 758
823 826 828 830 832 834 835 836 837 836 834 833 831 829 829 828 826 823 822 822 820 819 817 817 816 814 812 811 810 806 802 798 795 792 787 783 779 775 771 766 761 758 754
821 824 826 828 830 832 833 834 833 833 831 829 828 828 827 824 823 824 822 822 820 817 816 815 813 811 811 809 808 805 802 798 795 790 785 780 776 772 768 763 758 754 751
820 822 825 826 828 829 829 830 829 828 827 825 824 825 823 822 820 821 821 822 819 815 813 812 810 809 807 806 804 802 801 796 792 788 782 778 773 769 765 761 756 752 746
819 821 822 824 826 826 826 825 824 823 822 821 820 821 820 819 818 819 819 818 816 814 812 810 808 806 804 801 800 798 795 792 788 784 779 774 770 767 763 758 754 750 746
817 818 820 822 823 823 822 820 820 820 819 816 816 816 817 816 816 815 817 815 813 811 809 807 805 803 802 799 798 794 790 786 782 779 775 772 768 764 761 757 752 746 742
816 817 819 820 820 819 818 817 817 816 815 812 812 813 813 813 812 812 813 814 810 809 807 805 803 802 800 797 795 791 787 782 778 775 772 768 763 759 756 753 747 743 737
815 817 817 818 818 816 816 816 814 813 811 808 808 810 810 810 808 810 810 811 809 806 804 802 800 798 796 795 793 789 785 780 776 771 767 762 758 753 750 747 743 739 735
814 815 816 816 814 813 812 812 811 810 809 807 805 807 808 808 808 806 807 807 806 804 803 800 798 795 793 792 790 787 783 779 774 769 764 759 755 751 747 744 741 737 732
814 815 815 813 812 812 810 807 805 805 804 803 803 803 804 804 804 803 803 803 803 802 800 798 796 793 790 788 786 783 780 776 772 768 763 758 754 751 747 742 737 732 727
812 812 810 808 808 809 808 803 801 803 800 799 799 800 800 799 798 798 798 798 798 798 797 795 792 790 787 785 783 780 777 775 772 767 763 758 754 750 746 740 735 729 722
811 809 807 805 804 804 803 799 798 800 798 796 796 796 797 795 795 795 793 794 794 793 792 791 789 786 783 781 779 777 776 773 771 767 763 758 753 749 745 741 735 729 723
807 807 805 804 802 800 798 796 795 794 794 793 792 792 792 791 791 790 790 791 791 790 789 788 785 783 781 779 777 776 774 772 769 766 762 758 753 749 745 741 736 731 726
806 804 802 800 799 797 795 793 792 790 789 788 787 787 786 786 787 786 786 786 786 786 786 784 781 779 778 777 775 773 772 770 768 766 762 758 754 750 745 741 738 734 730
804 801 799 799 797 795 794 791 787 784 781 781 780 780 780 780 781 781 781 781 781 782 782 779 777 776 775 774 772 771 769 768 767 764 762 758 755 752 747 741 739 736 732
800 797 795 793 792 790 789 787 784 780 776 774 774 773 773 774 774 775 776 776 776 775 775 774 772 771 771 770 768 768 767 767 765 763 761 758 755 752 748 744 740 737 734
795 792 790 788 786 784 783 781 779 776 772 768 768 768 767 767 768 768 770 770 769 768 768 767 767 766 766 766 765 765 765 765 763 762 760 758 755 752 749 746 742 739 735
787 784 783 782 779 777 776 775 773 770 766 763 761 761 762 762 761 761 761 762 762 761 762 762 762 761 761 761 762 762 762 761 760 759 758 757 754 752 749 746 744 741 737
780 778 776 775 773 771 769 767 765 763 760 757 755 754 755 755 755 754 754 754 753 753 754 755 755 756 756 757 758 758 758 757 757 756 756 755 753 751 749 746 744 742 739
774 771 770 768 766 764 763 761 757 754 753 751 748 747 747 747 747 747 747 746 746 746 746 747 748 749 750 751 752 752 753 753 753 753 753 752 751 750 748 746 744 742 740
767 766 764 762 760 758 756 753 751 747 746 744 742 741 740 739 739 739 738 738 738 738 739 739 740 742 743 744 745 747 748 748 749 749 750 750 749 748 747 745 744 742 741
760 759 757 756 754 752 749 747 744 741 739 738 736 735 733 732 731 731 730 730 729 729 730 731 731 733 736 737 738 741 742 744 744 745 746 746 747 746 745 745 743 742 741
754 750 748 748 747 746 743 740 738 735 733 732 730 729 728 726 725 724 723 722 721 720 720 722 723 725 728 730 732 734 737 738 740 741 742 743 744 744 744 744 743 742 741
749 745 743 742 742 741 739 737 734 731 729 727 725 723 722 720 719 717 716 715 714 713 713 714 715 718 720 723 726 729 731 732 734 736 738 740 741 741 741 741 741 741 740